Погода в Паранагуа

Бразилия     25°32′34″S   48°32′26″W
темп.,
°C
ветер,
м/с
пор.,
м/с
влажн.,
%
обл.,
%
осадки,
мм/ч
давл.,
гПа
погр.,
м
26 февраля, пт
пт2600:00+22ююв129699 2.4 1014136
03:00+20ююз129762 5.3 1013143
06:00+20ююз239870 1.6 1012191
09:00+21ююз259683 2.9 1015361
12:00+24ю369599 3.9 1014726
15:00+24ю379594 9.0 1013828
18:00+22ю279650 5.9 1013546
21:00+21ююз239742 9.7 1016202
27 февраля, сб
сб2700:00+21ю249776 2.7 1015227
03:00+21ююз239879 6.5 1014183
06:00+20юз129991 2.0 1014142
09:00+23юз139392 2.8 1016355
12:00+25ююз259324 5.8 1015611
15:00+25ю379412 13.6 1013776
18:00+24ююз269551 6.9 1014368
21:00+22ю239674 13.8 1015190
28 февраля, вс
вс2800:00+22ююз129790 6.6 1015128
03:00+21зюз119884 9.9 101368
06:00+20з119892 1.3 101460
09:00+23зсз119393 2.4 1015216
12:00+27в247651 5.3 1014706
15:00+25в369460 15.5 1012560
18:00+23в4997100 14.4 1012419
21:00+22вюв2797100 24.4 1014343
1 марта, пн
пн100:00+22юв1297100 2.1 1014124
03:00+22з1196100 2.4 101291
06:00+21з1198100 1.1 101250
09:00+25з118799 1.3 1013321
12:00+29вюв336866 0.9 1012809
15:00+28юв247467 5.6 1010829
18:00+25юв1286100 0.5 1010121
21:00+22всв1199100 6.4 101288
2 марта, вт
вт200:00+22юв0198100 0.9 101365
03:00+22всв0198100 2.4 101272
06:00+22с1298100 1.1 101296
09:00+25сз1190100 1.2 1013328
12:00+31в2357100 0.0 10121095
15:00+28в347471 2.3 1010475
18:00+24юв0196100 4.8 101150
21:00+23зсз1199100 12.8 101365